Fort Atkinson, Wisconsin, United States (53538)
Lat: 42.93N, Lon: 88.84W
Wx Zone: WIZ064
Local Info
Past Weather Observations for Today

NOTE: This archive is for the closest National Weather Service station to Fort Atkinson. Information may differ from the station used for current weather conditions.

Click here for Long-term Archive

Time Weather Temperature Dewpoint Humidity Pressure Winds Precip Visibility
16:15
Mostly Cloudy
68°F / 20°C 63°F / 17°C 83% 30.12 in
(1020 mb)
E 9.2 mph
(E 15 kph)
- 10SM
15:55
Partly Cloudy
68°F / 20°C 63°F / 17°C 83% 30.15 in
(1021 mb)
E 11.5 mph
(E 19 kph)
- 10SM
15:35
Partly Cloudy
70°F / 21°C 63°F / 17°C 78% 30.15 in
(1021 mb)
E 11.5 mph
(E 19 kph)
- 10SM
15:15
Overcast
68°F / 20°C 63°F / 17°C 83% 30.15 in
(1021 mb)
SE 11.5 mph
(SE 19 kph)
- 10SM
14:55
Overcast
68°F / 20°C 63°F / 17°C 83% 30.15 in
(1021 mb)
SE 8.1 mph
(SE 13 kph)
- 10SM
14:35
Overcast
68°F / 20°C 63°F / 17°C 83% 30.15 in
(1021 mb)
E 9.2 mph
(E 15 kph)
- 10SM
14:15
Overcast
68°F / 20°C 63°F / 17°C 83% 30.15 in
(1021 mb)
ESE 9.2 mph
(ESE 15 kph)
- 10SM
13:55
Overcast
68°F / 20°C 61°F / 16°C 78% 30.15 in
(1021 mb)
E 6.9 mph
(E 11 kph)
- 10SM
13:35
Overcast
68°F / 20°C 61°F / 16°C 78% 30.18 in
(1022 mb)
E 8.1 mph
(E 13 kph)
- 10SM
13:15
Overcast
68°F / 20°C 61°F / 16°C 78% 30.18 in
(1022 mb)
SE 6.9 mph
(SE 11 kph)
- 10SM
12:55
Overcast
68°F / 20°C 59°F / 15°C 73% 30.18 in
(1022 mb)
ESE 9.2 mph
(ESE 15 kph)
- 10SM
12:35
Overcast
68°F / 20°C 59°F / 15°C 73% 30.21 in
(1023 mb)
E 9.2 mph
(E 15 kph)
- 10SM
12:15
Overcast
68°F / 20°C 61°F / 16°C 78% 30.21 in
(1023 mb)
E 9.2 mph
(E 15 kph)
- 10SM
11:55
Overcast
66°F / 19°C 59°F / 15°C 78% 30.21 in
(1023 mb)
E 9.2 mph
(E 15 kph)
- 10SM
11:35
Overcast
66°F / 19°C 59°F / 15°C 78% 30.21 in
(1023 mb)
ESE 5.8 mph
(ESE 9 kph)
- 10SM
11:15
Overcast
66°F / 19°C 59°F / 15°C 78% 30.21 in
(1023 mb)
E 9.2 mph
(E 15 kph)
- 10SM
10:55
Overcast
64°F / 18°C 59°F / 15°C 83% 30.21 in
(1023 mb)
E 11.5 mph
(E 19 kph)
- 10SM
10:35
Overcast
66°F / 19°C 59°F / 15°C 78% 30.21 in
(1023 mb)
E 11.5 mph
(E 19 kph)
- 10SM
10:15
Overcast
64°F / 18°C 61°F / 16°C 88% 30.21 in
(1023 mb)
E 10.4 mph
(E 17 kph)
- 10SM
09:55
Overcast
64°F / 18°C 59°F / 15°C 83% 30.24 in
(1024 mb)
E 5.8 mph
(E 9 kph)
- 10SM
09:35
Overcast
64°F / 18°C 59°F / 15°C 83% 30.21 in
(1023 mb)
ESE 8.1 mph
(ESE 13 kph)
- 10SM
09:15
Overcast
64°F / 18°C 59°F / 15°C 83% 30.21 in
(1023 mb)
E 10.4 mph
(E 17 kph)
- 10SM
08:55
Overcast
64°F / 18°C 59°F / 15°C 83% 30.21 in
(1023 mb)
E 11.5 mph
(E 19 kph)
- 10SM
08:35
Overcast
63°F / 17°C 59°F / 15°C 88% 30.21 in
(1023 mb)
E 12.7 mph
(E 20 kph)
- 10SM
08:15
Overcast
63°F / 17°C 59°F / 15°C 88% 30.21 in
(1023 mb)
E 11.5 mph
(E 19 kph)
- 10SM
07:55
Mostly Cloudy
63°F / 17°C 59°F / 15°C 88% 30.21 in
(1023 mb)
E 10.4 mph
(E 17 kph)
- 10SM
07:35
Clear
63°F / 17°C 59°F / 15°C 88% 30.21 in
(1023 mb)
E 9.2 mph
(E 15 kph)
- 10SM
07:15
Partly Cloudy
63°F / 17°C 59°F / 15°C 88% 30.21 in
(1023 mb)
E 10.4 mph
(E 17 kph)
- 10SM
06:55
Mostly Cloudy
61°F / 16°C 61°F / 16°C 100% 30.21 in
(1023 mb)
E 5.8 mph
(E 9 kph)
- 10SM
06:35
Overcast
61°F / 16°C 61°F / 16°C 100% 30.21 in
(1023 mb)
ESE 5.8 mph
(ESE 9 kph)
- 10SM
06:15
Overcast
61°F / 16°C 61°F / 16°C 100% 30.21 in
(1023 mb)
E 8.1 mph
(E 13 kph)
- 10SM
05:55
Overcast
61°F / 16°C 61°F / 16°C 100% 30.21 in
(1023 mb)
E 8.1 mph
(E 13 kph)
- 10SM
05:35
Overcast
61°F / 16°C 61°F / 16°C 100% 30.21 in
(1023 mb)
E 5.8 mph
(E 9 kph)
- 10SM
05:15
Overcast
61°F / 16°C 61°F / 16°C 100% 30.18 in
(1022 mb)
E 5.8 mph
(E 9 kph)
- 10SM
04:55
Overcast
61°F / 16°C 61°F / 16°C 100% 30.18 in
(1022 mb)
E 4.6 mph
(E 7 kph)
- 10SM
04:35
Overcast
61°F / 16°C 61°F / 16°C 100% 30.18 in
(1022 mb)
E 3.5 mph
(E 6 kph)
- 10SM
04:15
Overcast
61°F / 16°C 61°F / 16°C 100% 30.18 in
(1022 mb)
E 3.5 mph
(E 6 kph)
- 10SM
03:55
Mostly Cloudy
61°F / 16°C 61°F / 16°C 100% 30.18 in
(1022 mb)
Calm - 10SM
03:35
Mostly Cloudy
59°F / 15°C 59°F / 15°C 100% 30.18 in
(1022 mb)
Calm - 10SM
03:15
Mostly Cloudy
61°F / 16°C 61°F / 16°C 100% 30.18 in
(1022 mb)
ENE 4.6 mph
(ENE 7 kph)
- 10SM
02:55
Partly Cloudy
61°F / 16°C 61°F / 16°C 100% 30.18 in
(1022 mb)
E 3.5 mph
(E 6 kph)
- 10SM
02:35
Mostly Cloudy
61°F / 16°C 61°F / 16°C 100% 30.18 in
(1022 mb)
ENE 5.8 mph
(ENE 9 kph)
- 10SM
02:15
Overcast
63°F / 17°C 63°F / 17°C 100% 30.18 in
(1022 mb)
ENE 4.6 mph
(ENE 7 kph)
- 10SM
01:55
Overcast
63°F / 17°C 63°F / 17°C 100% 30.15 in
(1021 mb)
E 5.8 mph
(E 9 kph)
- 10SM
01:35
Overcast
63°F / 17°C 63°F / 17°C 100% 30.15 in
(1021 mb)
E 4.6 mph
(E 7 kph)
- 10SM
01:15
Overcast
63°F / 17°C 63°F / 17°C 100% 30.15 in
(1021 mb)
E 8.1 mph
(E 13 kph)
- 10SM
00:55
Overcast
63°F / 17°C 63°F / 17°C 100% 30.15 in
(1021 mb)
E 8.1 mph
(E 13 kph)
- 10SM
00:35
Overcast
63°F / 17°C 63°F / 17°C 100% 30.15 in
(1021 mb)
E 8.1 mph
(E 13 kph)
- 10SM
00:15
Overcast
63°F / 17°C 63°F / 17°C 100% 30.15 in
(1021 mb)
E 5.8 mph
(E 9 kph)
- 10SM
Time Weather Temperature Dewpoint Humidity Pressure Winds Precip Visibility


Weather for websites

WeatherForYou.com, LLC is not responsible for any damages or problems caused by this service. Current weather conditions are obtained from the closest station including government and personal stations which may have varying degrees of accuracy. Weather forecasts are derived from the NOAA NDFD. Like all things, this site belongs to Jesus Christ... He just trusts us to maintain it. If you have any questions or comments email webmaster@weatherforyou.com

Copyright © 2016, WeatherForYou.com LLC. All rights reserved.